| time (UTC) | temp F | wind direction | speed knots | gust knots | rain 1hr in | rain 24hr in | rain mn in | humidity % | barometer mb |
| 20260502232359 | 53 | 0 | 0.0 | 0.0 | 0.00 | 0.00 | 0.00 | 75 | 1020.1 |
| 20260502231459 | 52 | 0 | 0.0 | 0.0 | 0.00 | 0.00 | 0.00 | 75 | 1020.2 |
| 20260502230559 | 53 | 0 | 0.0 | 0.0 | 0.00 | 0.00 | 0.00 | 74 | 1019.9 |
| 20260502225659 | 53 | 0 | 0.0 | 0.0 | 0.00 | 0.00 | 0.00 | 74 | 1020.0 |
| 20260502223859 | 54 | 0 | 0.0 | 0.0 | 0.00 | 0.00 | 0.00 | 73 | 1020.1 |
| 20260502222959 | 54 | 0 | 0.0 | 0.0 | 0.00 | 0.00 | 0.00 | 72 | 1020.2 |
| 20260502222059 | 54 | 0 | 0.0 | 0.0 | 0.00 | 0.00 | 0.00 | 71 | 1020.1 |
| 20260502221159 | 55 | 0 | 0.0 | 0.0 | 0.00 | 0.00 | 0.00 | 71 | 1020.0 |
| 20260502215422 | 55 | 0 | 0.0 | 0.0 | 0.00 | 0.00 | 0.00 | 70 | 1020.0 |
| 20260502213622 | 56 | 1 | 0.0 | 1.7 | 0.00 | 0.00 | 0.00 | 69 | 1019.9 |
| 20260502212722 | 56 | 1 | 0.0 | 1.7 | 0.00 | 0.00 | 0.00 | 68 | 1019.9 |
| 20260502210922 | 57 | 351 | 0.0 | 3.5 | 0.00 | 0.00 | 0.00 | 66 | 1020.1 |
| 20260502210022 | 59 | 1 | 1.7 | 1.7 | 0.00 | 0.00 | 0.00 | 64 | 1020.2 |
| 20260502205122 | 58 | 1 | 0.0 | 1.7 | 0.00 | 0.00 | 0.00 | 67 | 1019.8 |
| 20260502204223 | 57 | 1 | 0.0 | 1.7 | 0.00 | 0.00 | 0.00 | 68 | 1020.0 |
| 20260502203322 | 57 | 1 | 0.0 | 1.7 | 0.00 | 0.00 | 0.00 | 68 | 1019.8 |
| 20260502202423 | 57 | 1 | 0.0 | 1.7 | 0.00 | 0.00 | 0.00 | 68 | 1019.9 |
| 20260502201522 | 58 | 0 | 0.0 | 0.0 | 0.00 | 0.00 | 0.00 | 67 | 1019.8 |
| 20260502200625 | 59 | 0 | 0.0 | 0.0 | 0.00 | 0.00 | 0.00 | 66 | 1020.0 |
| 20260502195722 | 59 | 1 | 0.0 | 1.7 | 0.00 | 0.00 | 0.00 | 65 | 1019.6 |
| 20260502194822 | 60 | 1 | 0.0 | 1.7 | 0.00 | 0.00 | 0.00 | 63 | 1020.2 |
| 20260502193923 | 61 | 1 | 0.0 | 1.7 | 0.00 | 0.00 | 0.00 | 63 | 1020.0 |
| 20260502192122 | 61 | 357 | 0.0 | 1.7 | 0.00 | 0.00 | 0.00 | 61 | 1019.7 |
| 20260502191223 | 62 | 1 | 0.0 | 1.7 | 0.00 | 0.00 | 0.00 | 61 | 1019.5 |
| 20260502190322 | 62 | 1 | 0.0 | 1.7 | 0.00 | 0.00 | 0.00 | 60 | 1019.4 |
| 20260502184523 | 63 | 9 | 0.9 | 1.7 | 0.00 | 0.00 | 0.00 | 57 | 1019.5 |
| 20260502183625 | 63 | 357 | 0.0 | 1.7 | 0.00 | 0.00 | 0.00 | 59 | 1019.4 |
| 20260502182725 | 63 | 30 | 0.9 | 1.7 | 0.00 | 0.00 | 0.00 | 59 | 1019.4 |
| 20260502181823 | 65 | 51 | 0.9 | 1.7 | 0.00 | 0.00 | 0.00 | 55 | 1019.3 |
| 20260502180923 | 67 | 45 | 0.0 | 1.7 | 0.00 | 0.00 | 0.00 | 47 | 1019.3 |
| 20260502163923 | 72 | 39 | 0.9 | 3.5 | 0.00 | 0.00 | 0.00 | 38 | 1019.4 |
| 20260502163023 | 72 | 39 | 2.6 | 5.2 | 0.00 | 0.00 | 0.00 | 38 | 1019.3 |
| 20260502161224 | 73 | 40 | 0.9 | 5.2 | 0.00 | 0.00 | 0.00 | 37 | 1019.1 |
| 20260502151823 | 74 | 38 | 2.6 | 7.0 | 0.00 | 0.00 | 0.00 | 36 | 1019.7 |
| 20260502150924 | 74 | 37 | 1.7 | 6.1 | 0.00 | 0.00 | 0.00 | 36 | 1019.7 |
| 20260502123624 | 78 | 162 | 1.7 | 3.5 | 0.00 | 0.00 | 0.00 | 32 | 1021.2 |
| 20260502121823 | 78 | 19 | 0.9 | 3.5 | 0.00 | 0.00 | 0.00 | 31 | 1021.3 |
| 20260502120923 | 76 | 20 | 0.9 | 3.5 | 0.00 | 0.00 | 0.00 | 32 | 1021.6 |
| 20260502115123 | 77 | 140 | 0.9 | 3.5 | 0.00 | 0.00 | 0.00 | 31 | 1022.1 |
| 20260502114224 | 77 | 144 | 1.7 | 3.5 | 0.00 | 0.00 | 0.00 | 32 | 1022.0 |
| 20260502113324 | 77 | 149 | 0.0 | 3.5 | 0.00 | 0.00 | 0.00 | 31 | 1022.4 |
| 20260502112425 | 76 | 147 | 0.9 | 3.5 | 0.00 | 0.00 | 0.00 | 32 | 1022.5 |
| 20260502110626 | 76 | 63 | 0.9 | 1.7 | 0.00 | 0.00 | 0.00 | 32 | 1022.7 |
| 20260502105724 | 77 | 154 | 0.9 | 3.5 | 0.00 | 0.00 | 0.00 | 33 | 1022.9 |
| 20260502104825 | 77 | 171 | 1.7 | 5.2 | 0.00 | 0.00 | 0.00 | 32 | 1023.1 |
| 20260502103927 | 76 | 138 | 1.7 | 3.5 | 0.00 | 0.00 | 0.00 | 32 | 1023.2 |
| 20260502100325 | 75 | 145 | 0.9 | 3.5 | 0.00 | 0.00 | 0.00 | 33 | 1023.5 |
| 20260502090927 | 72 | 156 | 0.9 | 3.5 | 0.00 | 0.00 | 0.00 | 36 | 1023.9 |
| 20260502065424 | 56 | 158 | 0.0 | 1.7 | 0.00 | 0.00 | 0.00 | 60 | 1024.6 |
| 20260502064524 | 56 | 158 | 0.9 | 1.7 | 0.00 | 0.00 | 0.00 | 60 | 1024.7 |
| 20260502063626 | 55 | 150 | 0.9 | 1.7 | 0.00 | 0.00 | 0.00 | 60 | 1024.6 |
| 20260502062725 | 54 | 85 | 0.9 | 1.7 | 0.00 | 0.00 | 0.00 | 60 | 1024.7 |
| 20260502061824 | 54 | 31 | 0.0 | 1.7 | 0.00 | 0.00 | 0.00 | 63 | 1024.7 |
| 20260502060926 | 53 | 27 | 0.0 | 1.7 | 0.00 | 0.00 | 0.00 | 64 | 1024.5 |
| 20260502055124 | 51 | 23 | 0.9 | 1.7 | 0.00 | 0.00 | 0.00 | 67 | 1024.8 |
| 20260502054224 | 50 | 46 | 0.0 | 1.7 | 0.00 | 0.00 | 0.00 | 66 | 1024.8 |
| 20260502053327 | 49 | 45 | 0.0 | 1.7 | 0.00 | 0.00 | 0.00 | 69 | 1024.5 |
| 20260502052426 | 49 | 34 | 1.7 | 1.7 | 0.00 | 0.00 | 0.00 | 69 | 1024.5 |
| 20260502051524 | 49 | 11 | 0.0 | 1.7 | 0.00 | 0.00 | 0.00 | 68 | 1024.5 |
| 20260502045724 | 49 | 23 | 0.0 | 1.7 | 0.00 | 0.00 | 0.00 | 67 | 1024.5 |
| 20260502044824 | 48 | 19 | 0.0 | 1.7 | 0.00 | 0.00 | 0.00 | 68 | 1024.3 |
| 20260502043924 | 48 | 27 | 0.0 | 1.7 | 0.00 | 0.00 | 0.00 | 68 | 1024.5 |
| 20260502043032 | 48 | 23 | 0.0 | 1.7 | 0.00 | 0.00 | 0.00 | 67 | 1024.4 |
| 20260502041225 | 48 | 0 | 0.0 | 0.0 | 0.00 | 0.00 | 0.00 | 68 | 1024.3 |
| 20260502040325 | 48 | 1 | 0.0 | 1.7 | 0.00 | 0.00 | 0.00 | 68 | 1024.5 |
| 20260502035425 | 48 | 1 | 0.0 | 1.7 | 0.00 | 0.00 | 0.00 | 68 | 1024.5 |
| 20260502034525 | 48 | 1 | 0.0 | 1.7 | 0.00 | 0.00 | 0.00 | 68 | 1024.4 |
| 20260502033625 | 48 | 0 | 0.0 | 0.0 | 0.00 | 0.00 | 0.00 | 68 | 1024.6 |
| 20260502032725 | 49 | 0 | 0.0 | 0.0 | 0.00 | 0.00 | 0.00 | 67 | 1024.4 |
| 20260502031825 | 49 | 0 | 0.0 | 0.0 | 0.00 | 0.00 | 0.00 | 67 | 1024.4 |
| 20260502030925 | 49 | 0 | 0.0 | 0.0 | 0.00 | 0.00 | 0.00 | 67 | 1024.5 |
| 20260502025125 | 49 | 0 | 0.0 | 0.0 | 0.00 | 0.00 | 0.00 | 67 | 1024.3 |
| 20260502022426 | 49 | 0 | 0.0 | 0.0 | 0.00 | 0.00 | 0.00 | 66 | 1024.6 |
| 20260502021525 | 49 | 0 | 0.0 | 0.0 | 0.00 | 0.00 | 0.00 | 66 | 1024.6 |
| 20260502015725 | 49 | 22 | 0.0 | 1.7 | 0.00 | 0.00 | 0.00 | 65 | 1024.4 |
| 20260502013925 | 50 | 0 | 0.0 | 0.0 | 0.00 | 0.00 | 0.00 | 63 | 1024.3 |
| 20260502013025 | 49 | 0 | 0.0 | 0.0 | 0.00 | 0.00 | 0.00 | 65 | 1024.7 |
| 20260502012125 | 49 | 31 | 0.0 | 1.7 | 0.00 | 0.00 | 0.00 | 65 | 1024.5 |
| 20260502011225 | 50 | 23 | 0.0 | 1.7 | 0.00 | 0.00 | 0.00 | 63 | 1024.5 |
| 20260502010325 | 50 | 36 | 0.0 | 1.7 | 0.00 | 0.00 | 0.00 | 63 | 1024.6 |
| 20260502005425 | 51 | 19 | 0.0 | 1.7 | 0.00 | 0.00 | 0.00 | 62 | 1024.5 |
| 20260502004527 | 51 | 14 | 0.0 | 1.7 | 0.00 | 0.00 | 0.00 | 59 | 1024.5 |
| 20260502003625 | 51 | 23 | 0.0 | 1.7 | 0.00 | 0.00 | 0.00 | 61 | 1024.6 |
| 20260502000925 | 53 | 0 | 0.0 | 0.0 | 0.00 | 0.00 | 0.00 | 55 | 1024.6 |
| 20260502000025 | 53 | 0 | 0.0 | 0.0 | 0.00 | 0.00 | 0.00 | 55 | 1024.8 |
| 20260501235125 | 53 | 0 | 0.0 | 0.0 | 0.00 | 0.00 | 0.00 | 55 | 1024.9 |
| 20260501234225 | 53 | 0 | 0.0 | 0.0 | 0.00 | 0.00 | 0.00 | 55 | 1024.6 |
| 20260501233325 | 53 | 0 | 0.0 | 0.0 | 0.00 | 0.00 | 0.00 | 52 | 1024.6 |